Location: Betra
(48.4113°N, 8.6634°E)
Time: 18:21:15
(UTC+00:00)

Cosmos 1025 Rocket - Pass Details

Date: 23 May 2024
Orbit: 589 x 614 km, 82.5° (Epoch: 16 June)

Event Time Altitude Azimuth Distance (km) Brightness Sun altitude
Rises 02:39:25 0° 172° (S) 2,869 6.1 -8.1°
Reaches altitude 10° 02:41:41 10° 166° (SSE) 1,971 5.4 -7.8°
Maximum altitude 02:45:51 46° 93° (E) 837 4.1 -7.3°
Drops below altitude 10° 02:50:03 10° 21° (NNE) 1,986 6.8 -6.8°
Sets 02:52:21 0° 15° (NNE) 2,894 7.6 -6.5°
